Regional Weather Roundup
Issued by NWS

Home | Current Version | Previous Version | Text Only | Print | Product List | Glossary On
Versions: 1 2 3 4 5 6 7 8 9 10 11 12 13 14 15 16 17 18 19 20 21 22 23 24 25 26 27 28 29 30 31 32 33 34 35 36 37 38 39 40 41 42 43 44 45 46 47 48 49 50
000
ASUS43 KTOP 160008
RWRKS

WEATHER ROUNDUP FOR KANSAS
NATIONAL WEATHER SERVICE GOODLAND KS
600 PM CST SUN JAN 15 2017

NOTE:  "FAIR" INDICATES FEW OR NO CLOUDS BELOW 12,000 FEET WITH NO
SIGNIFICANT WEATHER AND/OR OBSTRUCTIONS TO VISIBILITY.

KSZ001>006-013>018-027>032-041>047-160100-
NORTHWEST KANSAS

CITY           SKY/WX    TMP DP  RH WIND       PRES   REMARKS
GOODLAND       CLOUDY    31  30  96 NE7       29.98F
6HR MIN TEMP:  30; 6HR MAX TEMP:  31; 6HR PCP:  0.18;

HAYS           LGT SNOW  30  30 100 E9        30.07S FOG
HILL CITY      MIX PCPN  31  30  96 E7        30.07S
6HR MIN TEMP:  30; 6HR MAX TEMP:  31; 6HR PCP:  0.18;

RUSSELL        CLOUDY    30  29  96 E9        30.07S FOG
6HR MIN TEMP:  29; 6HR MAX TEMP:  31;

$$

KSZ061>065-074>080-084>089-160100-
SOUTHWEST KANSAS

CITY           SKY/WX    TMP DP  RH WIND       PRES   REMARKS
DODGE CITY     CLOUDY    31  30  96 NE8       30.01S FOG
6HR MIN TEMP:  31; 6HR MAX TEMP:  31; 6HR PCP:  0.16;

ELKHART          N/A     30  24  78 N8          N/A
GARDEN CITY    CLOUDY    31  29  92 NE8       30.00S
6HR MIN TEMP:  30; 6HR MAX TEMP:  31; 6HR PCP:  0.06;

GREAT BEND     CLOUDY    31  29  92 NE8       30.07R
LIBERAL        CLOUDY    34  28  80 CALM      30.00S
PRATT          CLOUDY    29  28  99 CALM      30.04S FOG
6HR MIN TEMP:  28; 6HR MAX TEMP:  29; 6HR PCP:  0.05;

$$

KSZ066>073-081>083-090>101-160100-
SOUTHEAST KANSAS

CITY           SKY/WX    TMP DP  RH WIND       PRES   REMARKS
CHANUTE        CLOUDY    37  36  96 E7        30.11F FOG
6HR MIN TEMP:  34; 6HR MAX TEMP:  37; 6HR PCP: TRACE;

HUTCHINSON     CLOUDY    33  32  96 NE3       30.08R
6HR MIN TEMP:  32; 6HR MAX TEMP:  33;

MEDICINE LODGE   N/A     32  30  92 NE8       30.03R
NEWTON         CLOUDY   N/A N/A N/A E6        30.07S
PARSONS        CLOUDY    38  37  97 E6        30.10F FOG
6HR MIN TEMP:  36; 6HR MAX TEMP:  38; 6HR PCP:  0.02;

WICHITA INTL   CLOUDY    34  34 100 NE6       30.06S
6HR MIN TEMP:  33; 6HR MAX TEMP:  35; 6HR PCP:  0.30;

WICHITA JABRA  CLOUDY    33  32  96 NE6       30.06S
6HR MIN TEMP:  32; 6HR MAX TEMP:  33; 6HR PCP:  0.10;

WICHITA MCCONL CLOUDY    34  33  97 CALM      30.05S
WINFIELD       CLOUDY    36  36 100 E7        30.05F
6HR MIN TEMP:  34; 6HR MAX TEMP:  36; 6HR PCP:  0.17;

$$

KSZ007>012-019>026-033>040-048>060-102>105-160100-
NORTHEAST KANSAS

CITY           SKY/WX    TMP DP  RH WIND       PRES   REMARKS
CONCORDIA      MIX PCPN  31  31 100 E6        30.11F
6HR MIN TEMP:  29; 6HR MAX TEMP:  31; 6HR PCP:  0.31;

EMPORIA        MIX PCPN  32  32 100 NE12      30.08F FOG     WCI  23
6HR MIN TEMP:  31; 6HR MAX TEMP:  32; 6HR PCP:  0.03;

LAWRENCE       CLOUDY    32  32 100 E8        30.18S
6HR MIN TEMP:  32; 6HR MAX TEMP:  33; 6HR PCP:  0.10;

MANHATTAN      LGT RAIN  33  31  92 E8        30.13F
6HR MIN TEMP:  31; 6HR MAX TEMP:  33; 6HR PCP:  0.33;

MARYSVILLE     LGT RAIN  32  32 100 E5        30.14F
OLATHE IND     CLOUDY    33  32  96 E8        30.16F
6HR MIN TEMP:  31; 6HR MAX TEMP:  33; 6HR PCP:  0.08;

OLATHE EXE     CLOUDY    32  32 100 E7        30.17R
6HR MIN TEMP:  31; 6HR MAX TEMP:  32; 6HR PCP:  0.08;

SALINA         CLOUDY    32  30  92 NE7       30.11F FOG
TOPEKA BILLARD CLOUDY    33  30  88 E6        30.16S
6HR MIN TEMP:  32; 6HR MAX TEMP:  34; 6HR PCP:  0.18;

TOPEKA FORBES  CLOUDY    34  32  92 E6        30.14F
6HR MIN TEMP:  33; 6HR MAX TEMP:  34; 6HR PCP:  0.22;

$$




USA.gov is the U.S. government's official web portal to all federal, state and local government web resources and services.